Regional Weather Roundup
Issued by NWS San Diego, CA

Home | Current Version | Previous Version | Text Only | Print | Product List | Glossary On
Versions: 1 2 3 4 5 6 7 8 9 10 11 12 13 14 15 16 17 18 19 20 21 22 23 24 25 26 27 28
000
ASUS46 KSGX 031011
RWRSGX

SAN DIEGO HOURLY WEATHER ROUNDUP
NATIONAL WEATHER SERVICE SAN DIEGO CA
300 AM PDT TUE AUG 03 2021

NOTE: "FAIR" INDICATES FEW OR NO CLOUDS BELOW 12,000 FEET WITH NO
SIGNIFICANT WEATHER AND/OR OBSTRUCTIONS TO VISIBILITY.

CAZ042-043-060-061-PZZ750-775-031100-

GREATER SAN DIEGO AREA

CITY           SKY/WX    TMP DP  RH WIND       PRES   REMARKS
SAN DIEGO AP   CLEAR     67  61  81 CALM      29.97S
BROWN FIELD    CLEAR     67  57  70 CALM      29.96S
MIRAMAR MCAS   CLEAR     64  61  90 N5        29.96S
MONTGOMERY FLD CLEAR     67  60  78 N3        29.96F
GILLESPIE FLD  FAIR      66  48  52 CALM      29.95S
LEMON GROVE      N/A     67  59  75 CALM      29.92S

$$

NORTH SAN DIEGO COUNTY

CITY           SKY/WX    TMP DP  RH WIND       PRES   REMARKS
CAMP PENDLETON CLEAR     60  52  74 NE3       29.96S
OCEANSIDE AP   CLEAR     59  56  89 CALM      29.95S
OCEANSIDE HBR    N/A     62  60  94 N3        30.02S
VISTA            N/A     61  56  83 CALM      29.93S
CARLSBAD       CLEAR     65  60  84 CALM      29.95S
ENCINITAS        N/A     62  60  91 CALM        N/A
LA JOLLA SCRIP   N/A     64  60  85 CALM      29.95S
FALLBROOK      FAIR      63  50  63 CALM      29.97F
ESCONDIDO        N/A     69  52  55 CALM      29.93F
SAN MARCOS       N/A     64  54  68 CALM      29.97F
RANCHO BERNARD   N/A     65  57  74 CALM      29.93F
POWAY            N/A     62  50  65 CALM      29.96S

$$

EAST SAN DIEGO COUNTY

CITY           SKY/WX    TMP DP  RH WIND       PRES   REMARKS
RAMONA         CLEAR     59  44  57 CALM      29.99F
LA MESA          N/A     66  56  71 CALM      29.89S

$$

ORANGE COUNTY AND THE LOS ANGELES BASIN

CITY           SKY/WX    TMP DP  RH WIND       PRES   REMARKS
JOHN WAYNE AP  CLEAR     68  60  75 SW3       29.94F
LAGUNA BEACH     N/A     60  55  83 CALM      29.94F
LAKE FOREST FR   N/A     69  41  36 CALM      29.79S
HUNTINGTON BCH   N/A     64  61  91 CALM      29.94F
LOS ALAMITOS   FAIR      62  62 100 CALM      29.94F
FULLERTON      CLEAR     70  59  68 CALM      29.93F
LONG BEACH     CLEAR     67  58  72 CALM      29.94F
L.A. AP        CLEAR     64  59  83 W3        29.94F
L.A. DOWNTOWN  CLEAR     67  58  72 CALM      29.94F

$$

THE INLAND EMPIRE

CITY           SKY/WX    TMP DP  RH WIND       PRES   REMARKS
CORONA         CLEAR     64  52  64 CALM      29.96
UPLAND AP      FAIR      77  36  22 CALM      29.98S
CHINO          CLEAR     68  50  52 CALM      29.96F
ONTARIO        CLEAR     74  46  36 CALM      29.96F
SAN BERNARDINO FAIR      72  40  31 CALM      29.97F
RIVERSIDE AP   CLEAR     71  43  36 CALM      29.96F
MORENO VALLEY    N/A     74  36  25 CALM      29.92F
MARCH ARB      CLEAR     65  33  31 CALM      29.98F
HORSETHIEF CYN   N/A     74  29  19 S2        29.91S
PERRIS           N/A     74  37  26 CALM      29.97F
LAKE ELSINORE    N/A     69  42  38 CALM      29.85F
HEMET AP       FAIR      68  36  31 N3        30.00S
FRENCH VALLEY  FAIR      70  46  43 CALM      29.99F
TEMECULA         N/A     69  53  57 CALM      29.95S

$$

SAN BERNARDINO AND RIVERSIDE COUNTY MOUNTAINS

CITY           SKY/WX    TMP DP  RH WIND       PRES   REMARKS
BIG BEAR AP    CLEAR     48  36  61 CALM      30.39S
BIG BEAR LAKE    N/A     54  37  52 S2        29.97F
WRIGHTWOOD       N/A     65  31  28 CALM      29.82F
ANGELUS OAKS     N/A     66  38  36 CALM      29.82F
IDYLLWILD        N/A     61  45  56 CALM      29.84F

$$

SOUTHERN DESERT INCLUDING THE COACHELLA VALLEY

CITY           SKY/WX    TMP DP  RH WIND       PRES   REMARKS
PALM SPRINGS   CLEAR     89  44  20 CALM      29.85F
THOUSAND PALMS   N/A     96  31  10 NW10      29.76F
INDIO            N/A     94  34  12 W10       29.78F
THERMAL        CLEAR     96  28   9 NW10      29.77F
BORREGO AP     FAIR      79  28  15 CALM      29.84S
OCOTILLO WELLS   N/A     99  31   9 N6        29.72F
CANEBRAKE        N/A     92  30  11 CALM      29.74F
IMPERIAL AP    CLEAR     85  41  21 SW7       29.78F
EL CENTRO NAS  CLEAR     86  32  14 SW3       29.80F
YUMA AZ        CLEAR     91  61  36 CALM      29.80S

$$

UPPER DESERT

CITY           SKY/WX    TMP DP  RH WIND       PRES   REMARKS
HESPERIA         N/A     75  25  15 W2        29.70F
APPLE VALLEY     N/A     58  48  69 CALM      29.95S
PALMDALE       CLEAR     73  26  17 S6        30.05S
LANCASTER      CLEAR     71  28  20 S6        30.03S
EDWARDS AFB    CLEAR     72  34  25 SW6       30.00F
GRAY BUTTE AP  FAIR      70  29  21 S6        30.05F
DAGGETT        CLEAR     81  33  17 W12       29.99S
29 PALMS N     CLEAR     87  28  12 W10       30.04F
29 PALMS JTNP    N/A     87  42  20 CALM      29.77S
NEEDLES        CLEAR     93  46  19 SE3       29.84S

$$

REGIONAL REPORTS

CITY           SKY/WX    TMP DP  RH WIND       PRES   REMARKS
SANTA BARBARA  CLEAR     62  56  80 NE5       29.93S
SANDBERG       CLEAR     76  34  21 NW12      30.19F
LAS VEGAS NV   PTCLDY    91  45  20 SW5       29.96S
PHOENIX AZ     PTCLDY    92  61  35 SE7       29.86S
TIJUANA        CLEAR     66  61  82 CALM      29.99
ENSENADA NW      N/A     66  32  27 CALM      29.91S

$$

OFFSHORE ISLANDS

CITY           SKY/WX    TMP DP  RH WIND       PRES   REMARKS
CATALINA ARPT  NOT AVBL
SAN CLEMENTE I CLEAR     63  60  90 W12       29.98F
SAN NICOLAS IS CLEAR     59  51  75 NW15      29.96F

$$

MARINE AND OFFSHORE BUOY REPORTS

STATION/POSITION SKY/WX   TEMP    WIND        PRES    VSBY  SWELL
                          AIR SEA DIR/SP/G                  HT/PER/DIR
                          (F)     (DEG/KT/KT) (MB)    (MI)  (FT/S/D)
TANNER BANKS               63 66  310/ 16/ 19 1015.0S         3/190/16
S CLEMENTE BASIN           68 70  300/ 10/ 14 1014.1F         5/170/16
SAN NICOLAS IS.               63                N/A           3/190/17
W. S. BARBARA CH           57 56  310/ 19/ 25 1014.8R         2/260/17
M. S. BARBARA CH           62 63  250/ 12/ 16 1013.8R         2/260/ 6
S. MONICA BASIN            65     280/  6/  8 1013.9F         5/270/ 6
OCEANSIDE OFFSHR              65                N/A           2/200/17
TORREY PINES OTR              67                N/A           2/190/17
SAN DIEGO BAY                 72              1014.4S
IMPERIAL BEACH                60                N/A           2/220/11
POINT LOMA SOUTH              68                N/A           3/200/15

$$




USA.gov is the U.S. government's official web portal to all federal, state and local government web resources and services.